EZY74LJ LCPH-EGKK

Flight info

Callsign EZY74LJ
Flight time N/A
Altitude 34000
Route GENOS DCT TOSKA DCT VAXOS DCT RIPLI DCT SIGFO DCT BITLA DCT BONZI DCT RINAV DCT POD/N0450F360 DCT BARIT DCT UNIPA DCT PEVAL DCT BABAG DCT SUMIR DCT SAFFA DCT ELMUR DCT RIPUS DCT DITON DCT HOC DCT LUL DCT RLP DCT ROTSI DCT KOTUN DCT NINAL DCT KESAX DCT KUNAV
Aircraft A320/M-SDE3FGHIRWY/LB1

Departure

Time 2026-05-04 10:44
Airport Paphos International Airport (LCPH)

Arrival

Time N/A
Airport London Gatwick Airport (EGKK)
Time Latitude Longitude Altitude Speed Heading
2026-05-04 10:33 34.71346 32.48511 44 ft 0 kts 63°
2026-05-04 10:34 34.71355 32.48536 40 ft 8 kts 65°
2026-05-04 10:34 34.71389 32.48627 45 ft 12 kts 65°
2026-05-04 10:34 34.71423 32.48716 46 ft 10 kts 65°
2026-05-04 10:35 34.71456 32.48805 46 ft 14 kts 65°
2026-05-04 10:35 34.71492 32.48902 44 ft 12 kts 65°
2026-05-04 10:35 34.71536 32.48969 46 ft 9 kts 28°
2026-05-04 10:35 34.71590 32.48996 47 ft 8 kts 21°
2026-05-04 10:36 34.71638 32.49040 47 ft 12 kts 66°
2026-05-04 10:36 34.71620 32.49133 46 ft 12 kts 111°
2026-05-04 10:36 34.71587 32.49239 46 ft 15 kts 110°
2026-05-04 10:36 34.71549 32.49363 44 ft 15 kts 110°
2026-05-04 10:37 34.71534 32.49433 44 ft 11 kts 88°
2026-05-04 10:37 34.71586 32.49519 42 ft 10 kts 47°
2026-05-04 10:37 34.71633 32.49586 45 ft 10 kts 53°
2026-05-04 10:37 34.71633 32.49671 45 ft 14 kts 111°
2026-05-04 10:39 34.71480 32.49954 42 ft 0 kts 232°
2026-05-04 10:41 34.71466 32.49933 44 ft 8 kts 232°
2026-05-04 10:41 34.71419 32.49862 44 ft 11 kts 232°
2026-05-04 10:41 34.71413 32.49813 44 ft 6 kts 287°
2026-05-04 10:41 34.71418 32.49795 42 ft 0 kts 290°
2026-05-04 10:42 34.71430 32.49756 41 ft 28 kts 290°
2026-05-04 10:42 34.71582 32.49255 46 ft 95 kts 290°
2026-05-04 10:43 34.71877 32.48280 50 ft 147 kts 287°
2026-05-04 10:44 34.70685 32.38125 2920 ft 236 kts 256°
2026-05-04 10:45 34.70244 32.36184 3671 ft 240 kts 256°
2026-05-04 10:45 34.69804 32.34215 4490 ft 242 kts 256°
2026-05-04 10:45 34.69366 32.32223 5280 ft 245 kts 256°
2026-05-04 10:45 34.68929 32.30220 6099 ft 246 kts 256°
2026-05-04 10:46 34.68490 32.28205 6865 ft 247 kts 255°
2026-05-04 10:46 34.68049 32.26179 7621 ft 249 kts 255°
2026-05-04 10:46 34.67607 32.24140 8408 ft 250 kts 255°
2026-05-04 10:46 34.67166 32.22091 9180 ft 252 kts 254°
2026-05-04 10:47 34.66726 32.20053 9917 ft 253 kts 254°
2026-05-04 10:47 34.66287 32.17880 10217 ft 273 kts 258°
2026-05-04 10:47 34.66129 32.15481 10349 ft 298 kts 268°
2026-05-04 10:47 34.66295 32.12915 10573 ft 316 kts 271°
2026-05-04 10:49 34.67651 31.93465 14717 ft 341 kts 269°
2026-05-04 10:49 34.67850 31.90582 15270 ft 344 kts 270°
2026-05-04 10:50 34.68263 31.87684 15819 ft 350 kts 275°
2026-05-04 10:51 34.71587 31.66806 19490 ft 367 kts 275°
2026-05-04 10:52 34.72069 31.63755 19983 ft 368 kts 275°
2026-05-04 10:52 34.72550 31.60695 20475 ft 370 kts 275°
2026-05-04 10:52 34.73034 31.57618 20949 ft 371 kts 275°
2026-05-04 10:54 34.76411 31.35917 23907 ft 379 kts 275°
2026-05-04 10:54 34.76902 31.32755 24210 ft 381 kts 275°
2026-05-04 10:56 34.80367 31.10194 26217 ft 394 kts 275°
2026-05-04 10:56 34.80871 31.06903 26475 ft 396 kts 275°
2026-05-04 10:56 34.81376 31.03601 26734 ft 398 kts 275°
2026-05-04 10:57 34.81882 31.00278 26992 ft 400 kts 275°
2026-05-04 10:57 34.82388 30.96940 27241 ft 402 kts 275°
2026-05-04 10:57 34.82894 30.93593 27478 ft 403 kts 275°
2026-05-04 10:57 34.83402 30.90228 27704 ft 405 kts 275°
2026-05-04 10:58 34.83912 30.86850 27919 ft 407 kts 275°
2026-05-04 10:58 34.84423 30.83453 28138 ft 409 kts 275°
2026-05-04 10:58 34.84936 30.80044 28350 ft 410 kts 275°
2026-05-04 10:58 34.85451 30.76621 28549 ft 412 kts 275°
2026-05-04 10:59 34.85964 30.73183 28746 ft 413 kts 275°
2026-05-04 10:59 34.86479 30.69733 28935 ft 415 kts 275°
2026-05-04 10:59 34.86997 30.66273 29162 ft 415 kts 275°
2026-05-04 10:59 34.87513 30.62812 29437 ft 415 kts 275°
2026-05-04 11:00 34.88028 30.59361 29710 ft 414 kts 275°
2026-05-04 11:01 34.91586 30.35191 31205 ft 414 kts 275°
2026-05-04 11:02 34.92090 30.31738 31410 ft 414 kts 275°
2026-05-04 11:02 34.92592 30.28282 31608 ft 414 kts 275°
2026-05-04 11:05 34.97518 29.79588 33965 ft 413 kts 269°
2026-05-04 11:06 34.97798 29.72598 33965 ft 413 kts 269°
2026-05-04 11:06 34.98078 29.65608 33965 ft 413 kts 269°
2026-05-04 11:10 35.08034 29.19109 33970 ft 431 kts 301°
2026-05-04 11:12 35.22296 28.95461 33986 ft 434 kts 302°
2026-05-04 11:12 35.25870 28.89518 33992 ft 434 kts 302°
2026-05-04 11:13 35.29443 28.83564 33997 ft 434 kts 302°
2026-05-04 11:13 35.33014 28.77608 34004 ft 433 kts 302°
2026-05-04 11:14 35.36576 28.71657 34011 ft 433 kts 302°
2026-05-04 11:16 35.50754 28.47861 34021 ft 430 kts 303°
2026-05-04 11:16 35.54265 28.41926 34023 ft 429 kts 303°
2026-05-04 11:17 35.57780 28.35991 34023 ft 429 kts 303°